www.pogodaiklimat.ru

Погода и климат >> Архив погоды >> Россия >> Магаданская область >> Мыс Братьев


ПОГОДА на Мысе Братьев

  • Прогноз погоды на Мысе Братьев
  • Монитор погоды на Мысе Братьев
  • Климат города

АРХИВ ПОГОДЫ на Мысе Братьев

Время (UTC), дата Ветер
(напр.,м/с)
 
Видим.   Явления Облачность Т
(С)
Тd
(С)
f
(%)
Тe
(С)
Тes
(С)
Комфортность P
(гПа)
Po
(гПа)
Тmin
(С)
Tmax
(С)
R
(мм)
R24
(мм)
S
(см)
12 13.09 С 5 50 км 3/0
[Ac trans]
+6.7 -0.3 61 +3 +3 1016.8 1015.2
15 13.09 С 5 50 км ясно +4.3 -3.7 56 0 0 1017.7 1016.1
18 13.09 С 5 50 км ясно +1.9 -5.1 60 -3 -3 1018.2 1016.6
21 13.09 С 5 50 км ясно +5.4 -5.3 46 +2 +2 1018.4 1016.7 -0.0
00 14.09 ЮВ 4 50 км ясно +7.4 -1.8 52 +4 +8 1018.2 1016.6
03 14.09 Ю 3 50 км ясно +8.2 -5.3 38 +6 +11 1017.3 1015.7
06 14.09 ЮЗ 5 50 км ясно +7.6 -3.2 46 +4 +5 1016.6 1015.0
09 14.09 ЮЗ 4 50 км ясно +5.8 +1.0 71 +2 +2 1016.6 1015.0 +8.7
12 14.09 СЗ 3 50 км ясно +4.2 -3.2 59 +1 +1 1016.6 1015.0
15 14.09 штиль 0 50 км ясно +3.0 -0.2 79 +2 +2 1015.8 1014.2
18 14.09 СЗ 2 н/о н/о +1.6 -2.4 75 -2 -2 1015.0 1013.4
21 14.09 штиль 0 50 км ясно +6.5 +1.6 71 +6 +7 1014.5 1012.9 -0.1
00 15.09 ЮЗ 2 50 км ясно +10.0 +0.7 52 +9 +14 1013.7 1012.1
03 15.09 Ю 5 50 км ясно +9.7 +2.8 62 +7 +10 1012.0 1010.4
06 15.09 Ю 3 50 км 6/0
[Ac trans Ci]
+10.1 +6.3 77 +8 +9 1010.5 1008.9
09 15.09 СЗ 3 50 км 8/0
[Ac trans Ci fib]
+6.5 +5.1 91 +3 +3 1010.9 1009.3 +10.2
12 15.09 СЗ 2 50 км 9/0
[Ci fib]
+6.8 +5.2 90 +4 +4 1010.9 1009.3
15 15.09 СЗ 3 4000 м дымка 9/0
[Ci fib]
+6.5 +5.7 95 +3 +3 1011.2 1009.6
18 15.09 С 5 500 м туман ?/? +7.5 +5.6 88 +4 +4 1011.5 1009.9
21 15.09 С 5 50 км {туман} 8/8 600 м
[Cb cap]
+7.4 +4.8 84 +3 +4 1013.0 1011.4 +6.1
00 16.09 В 5 50 км {туман} 8/8 1000 м
[Cb cap]
+8.8 +4.2 73 +5 +6 1013.9 1012.4
03 16.09 Ю 2 50 км 9/6 1500 м
[Sc Ac trans]
+7.9 +5.8 87 +6 +7 1014.2 1012.6
06 16.09 Ю 2 50 км 8/8 1500 м
[Sc]
+7.4 +3.9 78 +5 +6 1014.8 1013.2
09 16.09 ЮЗ 2 50 км 5/0
[Ac trans]
+3.6 +2.0 89 +1 +1 1015.7 1014.1 +9.6
12 16.09 СЗ 2 50 км 5/0
[Ac trans]
+3.4 +1.6 88 0 0 1016.6 1015.0
15 16.09 З 1 50 км ясно +3.1 +1.7 91 +1 +1 1016.6 1015.0
18 16.09 СЗ 1 50 км 1/0
[Ac trans]
+4.1 +2.7 91 +3 +3 1017.0 1015.4
21 16.09 Ю 1 50 км 8/8 1000 м
[Sc]
+5.9 +4.3 89 +5 +5 1017.6 1016.0 +0.9
00 17.09 Ю 2 50 км 9/9 1000 м
[Sc]
+7.8 +5.2 84 +6 +6 1017.5 1015.9
03 17.09 ЮЗ 3 50 км 9/9 1000 м
[Sc]
+9.3 +5.9 79 +7 +7 1016.7 1015.1
06 17.09 ЮЗ 3 50 км 9/8 1000 м
[Sc Ac trans]
+9.1 +7.3 88 +7 +7 1015.9 1014.3
09 17.09 ЮЗ 6-12
{12}
50 км 5/5 1000 м
[Sc]
+8.9 +7.5 91 +5 +5 1015.5 1013.9 +10.0
12 17.09 ЮЗ 7-11
{13}
50 км 6/6 1000 м
[Sc]
+9.2 +7.5 89 +5 +5 1014.5 1012.9
15 17.09 ЮЗ 7-13
{13}
50 км 10/10 600 м
[Cb cap]
+10.3 +9.0 92 +7 +7 1013.3 1011.8
18 17.09 ЮЗ 4-11
{14}
50 км 8/8 600 м
[Cb cap]
+9.4 +8.8 96 +6 +6 1012.5 1010.9
21 17.09 ЮЗ 3
{12}
4000 м дымка 10/10 600 м
[Sc]
+9.6 +9.0 96 +7 +7 1012.2 1010.7 +8.8
00 18.09 ЮЗ 8-16
{16}
10 км дымка 10/10 300 м
[St]
+10.1 +9.5 96 +6 +6 1011.6 1010.1
03 18.09 ЮЗ 6
{16}
10 км дымка 10/10 300 м
[St]
+9.7 +9.0 95 +6 +6 1011.7 1010.1
06 18.09 ЮЗ 8-12
{15}
4000 м слабый ливневой дождь 10/10 300 м
[Cb cap]
+9.7 +9.1 96 +5 +5 1011.1 1009.5
09 18.09 ЮЗ 8-10
{12}
10 км слабый ливневой дождь 10/10 300 м
[Cb cap]
+9.8 +9.3 97 +6 +6 1011.7 1010.1 +10.4 1
12 18.09 СЗ 1
{11}
10 км слабый ливневой дождь 10/10 300 м
[Cb cap]
+10.1 +9.6 97 +9 +9 1012.5 1010.9
15 18.09 С 1 10 км дымка {ливн. осадки} 10/10 600 м
[Cb cap]
+8.8 +8.4 97 +8 +8 1012.7 1011.1
18 18.09 штиль 0 10 км дымка {ливн. осадки} 10/10 600 м
[Cb cap]
+8.6 +8.2 97 +8 +8 1013.0 1011.4
21 18.09 СВ 1 500 м туман ?/? +8.5 +8.0 97 +8 +8 1013.5 1011.9 +8.2 2
00 19.09 СВ 1 500 м туман ?/? +8.2 +7.8 97 +7 +7 1013.8 1012.2 +8.1
03 19.09 штиль 0 500 м туман 10/10 300 м
[Cb cap]
+9.0 +8.5 97 +8 +8 1013.8 1012.2
06 19.09 СВ 5
{10}
10 км дымка {туман} 10/0 300 м
[]
+8.9 +7.1 88 +5 +6 1014.2 1012.6
09 19.09 С 3
{10}
10 км дымка 10/10 300 м
[Cb cap]
+8.9 +6.7 86 +6 +6 1015.3 1013.7 +9.6
12 19.09 СВ 4
{10}
10 км дымка 10/10 300 м
[Cb cap]
+8.9 +6.6 85 +6 +6 1015.1 1013.6
15 19.09 СВ 8-13
{13}
10 км дымка 10/10 300 м
[Cb cap]
+8.5 +5.6 82 +4 +4 1015.2 1013.6
18 19.09 СВ 9-13
{13}
10 км дымка 10/10 300 м
[Cb cap]
+8.4 +5.1 80 +4 +4 1015.2 1013.6
21 19.09 СВ 8-12
{14}
10 км дымка 10/10 300 м
[Cb cap]
+8.9 +6.5 85 +4 +4 1014.8 1013.2 +7.9
00 20.09 СВ 9-14
{14}
50 км 9/9 600 м
[Cb cap]
+9.1 +5.3 77 +5 +5 1014.1 1012.5
03 20.09 СВ 9-14
{16}
50 км 9/9 600 м
[Cb cap]
+9.5 +4.5 71 +5 +5 1013.1 1011.6
06 20.09 СВ 14-20
{21}
50 км 9/9 600 м
[Sc]
+8.6 +4.4 75 +3 +3 1011.9 1010.4

 

Местоположение метеостанции Мыс Братьев (Магаданская область, Россия): широта 59.10 долгота 153.30 высота над уровнем моря 13 м.

В архиве по умолчанию представлена погода на Мысе Братьев за последнюю неделю. Архивные данные за месяц целиком и за предыдущие месяцы, начиная с января 2011 года, Вы можете получить, выбрав интересующий диапазон дат из раскрывающегося списка и нажав кнопку "Ввод!".

Внимание! Время в таблицах - всемирное. Для получения местного времени необходимо прибавить поправку, которая на Мысе Братьев равна 11 ч.

Смотрите также архив погоды в соседних городах и на ближайших метеорологических станциях:

Погода в Брохово (Магаданская область, Россия) (80 км)
Погода на Мысе Алевина (Магаданская область, Россия) (119 км)
Погода в Оле (Магаданская область, Россия) (130 км)
Погода в Магадане (Магаданская область, Россия) (156 км)
Погода в Палатке (Магаданская область, Россия) (175 км)
Погода в Армани (Магаданская область, Россия) (192 км)
Погода в Мадауне (Магаданская область, Россия) (221 км)
Погода в Шелихова (Магаданская область, Россия) (228 км)
Погода в Талае (Магаданская область, Россия) (232 км)
Погода на Остров Спафарьева (Магаданская область, Россия) (245 км)

Пояснения к столбцам:

Ветер - указаны скорость ветра в м/с - средняя за 10 мин, порывы в срок и между сроками (в фигурных скобках) и направление, откуда дует ветер: С - северный, СВ - северо-восточный, В - восточный, ЮВ - юго-восточный, Ю - южный, ЮЗ - юго-западный, З - западный, СЗ - северо-западный.
Видимость - горизонтальная дальность видимости в метрах или километрах. При видимости от 1 до 10 км при отсутствии осадков обычно наблюдается дымка, при ухудшении видимости до 1 км и менее - туман. В сухую погоду видимость может ухудшаться дымом, пылью или мглою.
Явления - указаны атмосферные явления, наблюдавшиеся в срок или в последний час перед сроком; фигурными скобками обозначены явления, наблюдавшиеся между сроками (за 1-3 часа до срока); квадратными скобками обозначены град или гололедные отложения с указанием их диаметра в мм.
Облачность - указаны через наклонную черту общая и нижняя облачность в баллах и высота нижней границы облаков в метрах; квадратными скобками обозначены формы облаков: Ci - перистые, Cs - перисто-слоистые, Cc - перисто-кучевые, Ac - высококучевые, As - высокослоистые, Sc - слоисто-кучевые, Ns - слоисто-дождевые, Cu - кучевые, Cb - кучево-дождевые. Подробнее классификацию облаков см. в Атласе облаков (PDF).
T - Температура воздуха - температура, измеренная на высоте 2 м над землей.
Td - Температура точки росы - температура, при понижении до которой содержащийся в воздухе водяной пар достигнет насыщения.
f - Относительная влажность воздуха - влажноcть воздуха, измеренная на высоте 2 м над землей.
Te - Эффективная температура - температура, которую ощущает одетый по сезону человек в тени. Характеристика душности погоды. При расчете учитывается влияние влажности воздуха и скорости ветра на теплоощущения человека.
Tes - Эффективная температура на солнце - температура, которую ощущает человек, с поправкой на солнечный нагрев. Характеристика знойности погоды. Зависит от высоты солнца над горизонтом, облачности и скорости ветра. Ночью, в пасмурную погоду, а также при ветре 12 м/с и более поправка равна нулю.
P - Атмосферное давление - приведенное к уровню моря атмосферное давление.
Po - Атмосферное давление - измеренное на уровне метеостанции атмосферное давление.
Tmin - Минимальная температура - минимум температуры воздуха на высоте 2 м над землей.
Tmax - Максимальная температура - максимум температуры воздуха на высоте 2 м над землей.
R - Количество осадков - Количество выпавших осадков за период времени, мм. При наведении курсора мыши на число - период времени, за который выпало указанное количество осадков.
R24 - Количество осадков - Количество выпавших осадков за 24 часа, мм.
S - Снежный покров - Высота снежного покрова, см. При наведении курсора мыши на число - состояние снежного покрова и степень покрытия местности в баллах.